sat.trackr.live / text

‹ back to catalog

STARLINK-37771

NORAD 69439 · 2026-126V

PAYLOAD ACTIVE UNKNOWN

§ Identity

Operator
Country
US
Launch date
2026-06-07
Launch site
AFWTR
Launch vehicle
Mass (kg)
RCS (m²)

Purposes: comms

External: N2YO · Heavens-Above · Gunter

§ Orbital elements

Epoch: 2026-09-19T22:11:41.311680Z

Period
93.91 min
Inclination
97.2847°
Eccentricity
0.0002474
Mean motion
15.33458124 rev/d
Perigee alt
463.8 km
Apogee alt
467.2 km
Semi-major
6,843.6 km
B*
6.3157e-4
RAAN
124.1260°
Arg perigee
94.9375°
Mean anomaly
265.2150°
Rev number
1,743

§ Raw data

STARLINK-377711 69439U 26126V   26262.92478370  .00020379  00000+0  63157-3 0  99912 69439  97.2847 124.1260 0002474  94.9375 265.2150 15.33458124 17432

JSON: /api/v1/satellites/69439 · /tle

For live sub-satellite position, see the globe view (requires WebGL).

§ Visibility from observer

Set your observer location to see the next 7 days of passes ≥ 10°. The values pass through the URL so the page stays shareable.

No JS? Fill the form by hand. The geolocation button needs JavaScript.